SCP
0 0 0 0 0 0 0 0 0 0 0 0 0 0 0 0 0 0 0 0 0 0 0 0 0 0 0 0 0 0 0 0 0 0 0 0 0 0 0 0 0 0 0 0 0 0 0 0 0 0 0 0 0 0
0 0 0 0 0 0 0 0 0 0 0 0 0 0 0 0 0 0 0 0 0 0 0 0 0 0 0 0 0 0 0 0 0 0 0 0 0 0 0 0 0 0 0 0 0 0 0 0 0 0 0 0 0 0
0 0 0 0 0 0 0 0 0 0 0 0 0 0 0 0 0 0 0 0 0 0 0 0 0 0 0 0 0 0 0 0 0 0 0 0 0 0 0 0 0 0 0 0 0 0 0 0 0 0 0 0 0 0
0 0 0 0 0 0 0 0 0 0 0 0 0 0 0 0 0 0 0 0 0 0 0 0 0 0 0 0 0 0 0 0 0 0 0 0 0 0 0 0 0 0 0 0 0 0 0 0 0 0 0 0 0 0
0 0 0 0 0 0 0 0 0 0 0 0 0 0 0 0 0 0 0 0 0 0 0 0 0 0 0 0 0 0 0 0 0 0 0 0 0 0 0 0 0 0 0 0 0 0 0 0 0 0 0 0 0 0
0 0 0 0 0 0 0 0 0 0 0 0 0 0 0 0 0 0 0 0 0 0 0 0 0 0 0 0 0 0 0 0 0 0 0 0 0 0 0 0 0 0 0 0 0 0 0 0 0 0 0 0 0 0
0 0 0 0 0 0 0 0 0 0 0 0 0 0 0 0 0 0 0 0 0 0 0 0 0 0 0 0 0 0 0 0 0 0 0 0 0 0 0 0 0 0 0 0 0 0 0 0 0 0 0 0 0 0
0 0 0 0 0 0 0 0 0 0 0 0 0 0 0 0 0 0 0 0 0 0 0 0 0 0 0 0 0 0 0 0 0 0 0 0 0 0 0 0 0 0 0 0 0 0 0 0 0 0 0 0 0 0
0 0 0 0 0 0 0 0 0 0 0 0 0 0 0 0 0 0 0 0 0 0 0 0 0 0 0 0 0 0 0 0 0 0 0 0 0 0 0 0 0 0 0 0 0 0 0 0 0 0 0 0 0 0
0 0 0 0 0 0 0 0 0 0 0 0 0 0 0 0 0 -0 0 0 0 0 0 0 0 0 0 0 0 0 0 0 0 0 0 0 0 0 0 0 0 0 0 0 0 0 0 0 0 0 0 0 0 0
0 0 0 0 0 0 0 0 0 0 0 0 0 0 0 0 0 0 0 0 0 0 0 0 0 0 0 0 0 0 0 0 0 0 0 0 0 0 0 0 0 0 0 0 0 0 0 0 0 0 0 0 0 0
0 0 0 0 0 0 0 0 0 0 0 0 0 0 0 0 0 0 0 0 0 0 0 0 0 0 0 0 0 0 0 0 0 0 0 0 0 0 0 0 0 0 0 0 0 0 0 0 0 0 0 0 0 0
0 0 0 0 0 0 0 0 0 0 0 0 0 0 0 0 0 0 0 0 0 0 0 0 0 0 0 0 0 0 0 0 0 0 0 0 0 0 0 0 0 -0 -0 -0 -0 0 0 0 0 0 0 0 0 0
0 0 0 0 0 0 0 0 0 0 0 0 0 0 0 0 0 0 0 0 0 0 0 -0 0 0 0 0 0 0 0 0 0 0 0 0 0 0 0 0 0 0 -0 -0 -0 0 0 0 0 0 0 0 0 0
0 0 0 0 0 0 0 0 0 0 0 0 0 0 0 0 0 0 0 0 0 0 0 0 0 0 0 0 0 0 0 0 0 0 0 -0 0 0 0 0 0 0 -0 -0 -0 0 0 0 0 0 0 0 0 0
0 0 0 0 0 0 0 0 0 0 0 0 0 0 0 0 0 0 0 0 0 0 0 0 0 0 0 0 0 0 0 0 0 0 0 0 0 0 0 0 0 0 -0 -0 0 0 0 0 0 0 0 0 0 0
0 0 0 0 0 0 0 0 0 0 0 0 0 0 0 0 0 0 0 0 0 0 0 0 0 0 0 0 0 0 0 0 0 0 0 0 0 0 0 0 0 0 -0 -0 0 0 0 0 0 0 0 0 0 0
0 0 0 0 0 0 0 0 0 0 0 0 0 0 0 0 0 0 0 0 0 0 0 0 0 0 0 0 0 0 0 0 0 0 0 0 0 0 0 0 0 0 -0 0 0 0 0 0 0 0 0 0 0 0
0 0 0 0 0 0 0 0 0 0 0 0 0 0 0 0 0 0 0 0 0 0 0 0 0 0 0 0 0 0 0 0 0 0 0 0 0 0 0 0 0 0 0 0 0 0 0 0 0 0 0 0 0 0
0 0 0 0 0 0 0 0 0 0 0 0 0 0 -0 -0 0 -0 0 0 0 -0 0 0 0 0 0 0 0 0 0 0 0 0 0 0 0 0 0 0 0 0 0 0 0 0 0 0 0 0 0 0 0 0
0 0 0 0 0 0 0 0 0 0 0 0 0 0 0 0 0 0 0 -0 0 0 0 0 0 0 0 0 0 0 0 0 0 0 0 0 0 0 0 0 0 0 0 0 0 0 0 0 0 0 0 0 0 0
0 0 0 0 0 0 0 0 0 0 0 0 0 0 0 0 0 0 0 -0 0 0 0 0 0 0 0 0 0 0 0 0 0 0 0 0 0 0 0 0 0 0 0 0 0 0 0 0 0 0 0 0 0 0
0 0 0 0 0 0 0 0 0 0 0 0 0 0 0 0 0 0 0 -0 -0 0 0 0 0 0 0 0 0 0 0 0 0 0 0 0 0 0 0 0 0 0 0 0 0 0 0 0 0 0 0 0 0 0
0 0 0 0 0 -0 -0 -0 -0 -0 0 0 0 0 0 0 0 0 0 0 0 0 0 0 0 0 0 0 0 0 0 0 0 0 0 0 0 0 0 0 0 0 0 0 0 0 0 0 0 0 0 0 0 0
0 0 0 0 0 0 0 -0 -0 -0 0 0 0 0 0 0 0 0 -0 0 -0 0 0 0 0 0 0 0 0 0 0 0 0 0 0 0 0 0 0 0 0 0 0 0 0 0 0 0 0 0 0 0 0 0
0 0 -0 0 -0 -0 0 0 -0 -0 0 0 0 0 0 0 0 0 0 -0 -0 0 0 0 0 0 0 0 0 0 0 -0 0 0 0 0 0 0 0 0 0 0 0 0 0 0 0 0 0 0 0 0 0 0
0 0 0 0 0 -0 0 0 0 0 0 0 -0 0 0 0 0 0 0 0 0 0 0 0 0 0 0 0 0 0 -0 0 0 0 0 0 0 0 0 0 0 0 0 0 0 0 0 0 0 0 0 0 0 0
0 0 0 0 0 0 0 0 0 0 0 0 0 -0 0 0 0 0 0 0 0 0 0 -0 0 0 0 0 -0 0 0 0 0 0 0 0 0 0 0 0 0 0 0 0 0 0 0 0 0 0 0 0 0 0
0 0 0 0 0 0 0 0 0 0 0 0 0 0 0 0 0 0 0 0 0 0 0 0 0 0 0 0 0 0 0 0 0 0 0 0 0 0 0 0 0 0 0 0 0 0 0 0 0 0 0 0 0 0
0 0 0 0 0 0 0 0 0 0 0 0 0 0 0 0 0 0 0 0 0 0 0 0 0 0 0 0 0 0 0 0 0 -0 0 0 0 0 0 0 0 0 0 0 0 0 0 0 0 0 0 0 0 -0
0 0 0 0 0 0 0 0 0 0 0 0 0 0 0 0 0 0 0 0 0 0 0 0 0 0 0 0 0 0 0 0 0 0 0 0 0 0 0 0 0 0 0 0 0 0 0 0 0 0 0 -0 -0 0
0 0 0 0 0 0 0 0 0 0 0 0 0 0 0 0 0 0 0 0 0 0 0 0 0 0 0 0 0 0 0 0 0 0 0 0 0 0 0 0 0 0 0 0 0 0 0 0 -0 -0 0 0 0 0
0 0 0 0 0 0 0 0 0 0 0 0 0 0 0 0 0 0 0 0 0 0 0 0 0 0 0 0 0 0 0 0 0 0 0 0 0 0 0 0 0 0 0 0 0 0 0 -0 -0 0 0 0 0 0
Wind_Speed_500mb
29 30 29 29 30 30 30 31 33 35 35 34 31 30 25 24 21 19 8 19 12 24 30 15 17 19 15 18 18 16 14 20 19 17 18 17 13 15 15 21 12 17 12 13 14 24 25 22 19 8 8 27 31 36
30 32 32 32 31 31 31 31 31 33 36 34 34 31 27 24 24 22 15 19 23 22 27 18 25 27 25 18 17 15 11 4 14 10 12 9 10 10 13 20 15 13 19 10 10 4 7 13 12 12 23 32 35 36
27 29 31 34 35 35 33 33 32 31 32 36 34 34 29 29 27 28 21 16 15 25 40 45 44 30 33 30 19 15 25 17 9 9 20 9 12 11 15 17 24 21 19 12 12 11 16 24 24 23 24 26 28 31
29 29 29 29 33 37 37 35 35 32 31 33 37 34 31 30 30 30 24 22 22 19 16 20 19 22 23 28 34 30 15 7 13 13 24 14 17 13 18 18 15 10 15 16 25 31 28 26 19 16 18 22 26 30
31 32 34 33 36 33 36 38 37 34 31 32 33 34 32 34 38 37 34 30 30 22 13 17 9 27 20 19 27 35 29 23 24 25 19 18 32 18 24 18 21 33 25 19 16 14 7 10 9 13 18 23 26 31
30 33 34 33 32 33 31 34 37 36 34 32 32 33 34 34 28 32 33 46 43 29 14 10 10 19 20 21 23 31 36 31 35 33 29 35 9 8 13 21 34 29 26 28 27 14 12 11 13 18 18 21 26 30
32 32 33 32 32 30 28 29 31 36 35 33 33 36 33 35 26 31 12 13 35 39 10 12 18 30 24 22 25 26 30 33 32 36 35 37 23 20 20 27 31 17 23 25 24 16 15 17 15 11 18 20 24 30
36 35 34 32 30 30 28 29 29 35 34 33 32 33 39 31 38 40 54 15 34 34 15 9 10 14 27 23 25 28 26 33 31 35 29 27 23 20 14 26 39 38 27 30 28 24 19 12 12 15 16 22 28 32
35 38 35 32 29 28 25 27 27 33 30 29 26 22 27 35 20 32 41 47 39 23 12 13 21 16 28 30 27 19 22 16 23 25 40 23 23 21 19 31 33 34 36 34 29 25 22 19 17 13 18 24 28 32
33 33 34 32 31 31 30 26 24 28 23 20 12 10 12 21 28 18 19 15 29 21 16 12 33 13 24 32 26 16 17 16 10 21 31 28 29 52 51 37 29 31 37 31 31 28 22 19 15 12 18 21 26 31
36 33 33 32 31 32 30 25 18 19 20 13 14 15 9 10 20 15 10 10 13 9 18 21 38 13 23 20 15 22 6 7 9 15 14 10 17 45 59 60 38 36 38 33 28 23 18 12 9 10 15 20 26 29
38 34 34 33 33 34 31 26 15 25 20 20 14 13 18 12 8 7 8 8 12 13 26 30 60 58 25 21 13 14 6 7 12 16 9 12 18 34 40 55 53 41 35 32 29 22 16 13 9 7 14 20 25 25
39 35 33 32 34 34 33 27 24 34 28 22 14 14 10 10 9 10 16 10 11 18 19 36 34 30 15 17 9 8 12 13 7 10 10 9 20 29 28 38 56 47 34 30 27 22 18 14 9 11 16 20 25 25
35 35 34 32 35 33 36 26 28 28 27 11 14 11 10 11 13 14 20 4 21 14 34 50 40 15 18 15 9 9 13 8 13 16 17 11 26 27 31 36 47 42 39 34 28 22 17 14 11 12 16 19 25 25
31 31 35 33 36 33 34 28 31 24 16 15 12 12 17 27 23 12 19 11 20 24 37 36 21 13 8 9 9 13 11 15 14 17 11 33 39 44 43 43 43 41 36 31 25 20 16 13 12 15 17 21 25 22
28 29 41 35 37 34 33 32 27 26 15 10 13 9 21 18 32 25 21 25 18 18 45 28 9 10 9 9 18 23 16 14 13 9 25 34 49 50 46 43 40 36 32 27 22 17 13 11 12 16 21 23 22 21
29 24 30 35 36 38 38 31 28 22 13 12 15 29 32 21 22 30 33 22 22 15 5 8 16 16 12 12 22 20 28 11 14 29 25 33 49 51 48 43 38 34 29 23 18 15 11 10 13 19 25 20 20 21
30 29 29 37 40 36 30 25 17 17 18 22 18 35 28 29 16 14 14 12 20 25 18 4 8 24 14 20 20 24 30 26 22 28 32 43 50 48 45 41 35 30 26 21 17 14 13 15 18 19 16 17 20 19
28 28 33 45 48 28 19 22 17 10 28 24 32 35 28 29 29 28 20 16 25 25 8 9 9 11 18 12 20 37 34 35 35 34 37 44 49 47 43 37 31 26 22 18 16 15 13 10 16 16 15 17 21 25
28 32 36 49 46 17 10 12 26 13 12 22 31 32 29 36 36 33 29 26 17 13 8 6 8 12 14 16 6 26 38 37 40 45 47 46 46 43 39 34 27 23 19 15 14 15 12 9 11 11 11 20 16 20
30 30 35 38 42 29 9 8 15 21 25 18 20 28 28 36 36 28 24 18 18 10 12 24 28 20 18 7 15 26 34 43 48 50 53 51 45 39 34 28 25 20 16 14 11 12 10 10 9 11 13 12 12 13
25 37 30 41 16 14 13 16 15 10 14 9 10 24 23 33 25 23 18 14 12 17 25 31 24 4 10 13 13 28 31 37 39 43 44 46 44 37 33 27 21 18 14 10 9 9 8 8 6 11 13 7 10 9
28 32 20 15 12 15 14 13 15 15 9 7 5 12 8 15 15 21 11 13 12 21 26 32 26 29 16 22 30 35 35 37 42 44 43 40 34 29 25 21 18 15 11 9 9 8 6 7 14 10 10 9 10 10
23 15 11 16 19 13 11 11 13 12 9 10 7 7 7 11 18 13 5 1 6 17 9 37 44 13 22 23 33 34 33 33 36 38 36 34 31 25 21 18 15 12 11 10 9 9 9 10 11 13 7 7 10 11
10 11 9 13 14 10 9 9 12 13 12 8 4 4 7 17 11 11 10 14 16 9 2 44 38 8 29 35 36 37 29 32 34 33 30 28 25 24 20 16 12 10 10 11 11 11 12 11 10 5 2 5 7 11
10 16 14 13 17 11 9 9 10 13 7 7 6 6 8 6 8 8 7 23 19 19 14 29 32 8 29 27 25 31 33 30 29 27 25 26 24 21 17 17 13 16 13 13 12 13 14 10 8 8 7 5 4 10
8 14 18 19 15 16 10 17 16 8 3 3 8 6 1 2 5 8 11 13 15 16 25 19 21 18 19 23 29 27 32 22 22 20 22 22 19 15 11 11 10 7 8 6 11 13 14 13 14 16 9 3 12 16
13 9 15 24 17 13 6 7 7 6 5 1 5 13 10 3 7 10 7 5 7 12 15 24 22 21 24 24 31 29 25 24 21 19 18 18 15 13 10 8 7 6 5 6 7 8 10 10 12 19 13 11 17 12
9 8 11 12 10 7 11 13 9 9 11 8 4 7 7 9 13 16 8 8 13 16 18 22 25 19 28 32 28 26 26 25 24 22 20 18 16 13 11 4 4 5 7 10 23 17 12 13 19 16 15 21 17 12
8 7 4 11 7 6 8 9 8 11 14 15 9 11 13 15 13 15 16 15 16 18 19 23 25 27 26 26 26 24 21 17 17 17 17 12 12 15 15 11 11 13 14 14 11 12 8 14 24 22 20 23 16 14
5 6 8 7 6 6 8 10 13 15 10 19 21 22 13 9 11 15 17 16 17 20 20 27 24 19 21 24 24 23 19 13 7 3 5 6 6 7 9 14 18 20 18 16 13 18 23 23 15 17 25 19 17 14
9 11 3 6 5 6 7 3 8 9 8 9 10 10 6 6 7 6 8 11 14 21 22 19 17 19 17 17 16 19 19 16 12 6 3 5 4 7 15 18 24 25 24 19 17 19 18 20 20 21 22 18 14 17
7 9 13 10 7 7 7 8 6 6 9 7 7 7 5 4 4 7 4 6 12 14 13 15 14 13 15 14 12 13 13 7 8 5 8 15 9 17 15 24 30 32 28 23 24 26 22 22 21 15 15 17 20 22
Wind_Direction_500mb
266 267 268 266 265 266 267 265 261 261 259 262 264 263 260 248 248 245 246 262 244 268 266 283 256 265 250 245 250 139 179 211 204 240 261 260 248 263 240 266 273 219 216 253 249 264 274 123 138 203 275 312 304 310
271 269 266 263 263 263 263 266 266 261 251 256 254 253 257 247 239 237 248 268 260 245 263 288 256 245 246 270 284 187 257 320 229 235 228 287 261 251 265 270 166 254 243 273 192 262 109 205 244 276 286 300 307 309
274 281 278 266 262 260 261 260 262 262 257 249 250 249 248 252 244 233 233 259 277 267 276 255 250 261 241 236 234 258 219 242 232 278 305 290 267 281 259 246 257 198 240 241 268 266 276 239 257 275 285 294 306 304
267 268 274 283 277 264 257 256 257 258 257 251 243 248 247 245 243 239 235 238 240 267 280 250 207 239 241 228 224 224 261 248 222 244 250 257 260 240 259 290 273 292 162 235 255 265 261 255 263 284 287 299 302 307
268 271 272 271 274 284 266 254 253 253 254 252 243 243 244 242 236 240 241 231 221 234 301 285 241 239 234 215 218 220 224 227 236 228 234 245 256 263 252 271 266 249 236 245 258 309 262 256 269 277 288 298 308 315
270 274 273 268 268 268 275 263 252 249 249 250 244 239 247 251 236 226 244 246 227 212 263 257 256 214 216 212 214 213 217 225 234 244 247 250 214 237 261 241 254 251 246 231 247 253 235 257 269 284 287 303 312 315
272 275 271 264 263 261 267 264 265 250 246 246 245 239 245 245 240 212 211 177 193 197 212 238 242 211 210 200 204 207 210 221 230 236 241 251 228 192 254 257 252 247 238 226 222 212 231 244 255 286 293 304 311 312
270 273 267 260 259 256 254 259 268 263 244 242 245 243 237 247 250 242 225 230 184 180 203 248 231 172 192 198 195 203 210 218 225 239 231 238 211 222 253 248 246 244 235 219 213 212 233 253 262 275 289 305 311 318
267 268 257 251 253 245 245 258 264 272 248 237 244 252 252 248 231 236 233 242 230 199 202 237 225 203 175 212 204 185 218 218 232 222 237 231 229 224 235 250 243 224 218 209 207 210 226 238 258 281 298 313 318 320
268 262 250 244 242 236 234 246 254 275 246 217 219 213 236 230 230 264 229 209 209 211 216 251 228 196 189 190 185 192 191 232 212 227 238 231 242 244 237 252 247 213 204 201 201 201 223 236 255 273 306 316 323 323
259 259 244 239 236 229 230 240 245 276 191 194 203 219 234 205 191 188 170 179 187 228 211 209 237 194 205 193 201 202 216 242 243 218 203 227 245 235 231 227 223 208 203 204 203 214 219 232 253 280 303 314 321 325
252 251 239 235 228 221 223 220 222 191 183 202 206 215 168 188 203 172 192 185 211 217 183 200 206 220 181 183 183 202 225 248 241 133 217 237 249 223 220 214 209 201 197 196 201 203 202 211 228 268 307 319 324 322
247 239 231 230 219 217 215 213 210 197 224 213 220 203 198 177 200 219 194 198 210 195 167 175 186 183 145 185 163 209 217 233 122 218 230 238 249 209 204 197 193 191 194 189 190 191 198 212 231 268 305 315 323 322
237 229 221 223 214 211 206 208 202 212 224 219 209 205 212 180 229 199 232 183 200 204 185 181 157 152 163 162 151 202 235 210 228 207 228 212 209 182 173 169 173 179 178 180 183 189 204 220 242 281 300 315 322 318
229 224 215 211 204 210 195 198 195 196 215 223 212 223 214 230 238 238 231 234 219 209 197 160 133 124 120 142 215 228 207 227 217 221 215 219 182 174 170 164 163 165 170 175 181 193 208 233 254 288 305 310 317 314
222 221 214 207 201 196 190 193 193 197 231 243 226 257 241 259 237 219 246 238 234 263 180 154 141 163 181 196 198 208 214 216 206 166 221 153 162 168 168 165 164 167 171 175 185 196 215 241 268 292 307 312 310 315
209 206 217 204 194 188 193 188 188 194 226 225 230 235 252 283 264 254 227 219 204 261 181 154 189 183 169 213 214 214 218 214 163 194 163 169 166 164 163 163 165 167 172 178 188 202 228 256 280 297 304 308 309 312
198 201 199 185 184 175 188 215 190 207 225 230 240 236 238 235 250 248 240 217 200 197 239 264 292 205 198 217 204 222 205 147 163 155 155 160 161 162 163 163 165 168 175 187 200 219 245 270 282 294 310 308 312 309
200 197 189 183 175 179 197 205 216 240 222 221 237 259 266 248 232 244 237 221 215 209 260 271 245 237 222 257 243 189 154 153 160 149 154 159 160 161 161 162 163 170 181 195 210 234 262 281 281 290 299 311 318 323
189 192 188 182 182 207 226 207 198 238 235 216 226 233 237 245 242 220 229 221 203 196 198 248 234 305 331 269 283 170 176 170 163 151 153 157 160 158 160 161 169 174 184 203 225 234 257 264 268 268 284 315 330 324
163 177 175 187 202 228 250 214 215 232 232 234 238 239 234 233 233 217 209 193 193 196 221 224 251 299 271 275 191 182 178 184 177 168 159 159 163 163 164 168 172 181 197 217 232 199 270 257 271 290 303 306 321 328
170 174 174 194 202 213 253 236 241 224 205 230 256 223 245 228 214 205 183 183 217 210 209 224 216 228 242 203 181 165 177 177 169 160 159 158 163 167 174 176 182 197 205 217 231 244 261 271 260 293 295 294 318 310
168 182 182 179 198 214 264 247 231 213 231 197 246 207 219 225 198 169 214 214 227 226 208 211 205 170 195 184 169 164 175 162 157 158 158 166 167 170 173 184 193 205 214 224 225 231 255 251 293 285 266 284 301 317
181 189 184 182 214 208 211 223 210 190 228 206 209 187 189 199 176 204 203 266 259 214 223 198 178 213 179 170 154 156 164 165 156 160 166 165 167 170 178 186 197 206 216 220 216 226 252 276 271 280 229 292 310 313
183 206 205 232 226 218 217 203 191 192 227 188 227 182 189 180 199 190 159 183 193 161 147 179 181 179 171 161 160 165 170 167 168 168 169 170 173 171 175 182 185 188 188 195 218 240 259 268 276 211 138 305 320 308
230 205 197 221 200 212 221 253 222 207 186 203 150 251 203 195 147 151 125 165 176 168 144 152 179 162 178 182 181 177 177 182 170 171 175 173 171 172 179 185 194 201 213 227 249 258 263 254 210 170 199 314 24 85
256 217 209 226 248 179 227 251 251 149 267 227 134 195 130 53 117 86 112 108 131 148 172 137 158 168 176 194 194 192 190 161 164 169 168 171 169 171 174 180 186 149 167 245 266 249 238 214 209 178 186 229 123 121
252 236 201 194 211 215 254 205 184 192 171 155 241 194 169 53 67 71 85 149 172 151 154 171 183 185 221 176 166 156 155 163 161 140 147 154 157 163 165 173 180 235 191 171 187 189 189 182 178 186 185 185 160 125
245 214 179 184 147 77 26 13 41 35 3 334 1 52 61 60 84 76 88 126 148 151 149 152 165 150 150 169 167 161 158 156 157 159 163 160 165 166 169 198 144 141 168 177 175 172 170 171 199 199 195 177 158 138
90 18 111 53 35 61 34 23 52 39 50 57 74 93 87 82 66 72 63 88 116 128 134 142 148 154 158 154 146 149 156 160 163 173 186 174 159 170 171 187 192 167 159 156 156 183 202 154 150 143 149 152 147 157
32 79 79 66 74 56 93 90 81 68 64 35 80 96 100 112 102 75 72 72 96 115 114 109 119 135 141 153 155 162 156 157 161 97 95 134 205 212 183 198 175 169 157 151 139 131 140 147 145 158 155 153 161 163
29 26 94 106 115 128 153 127 90 81 69 62 48 57 69 81 59 78 61 50 99 96 97 110 106 95 104 107 113 115 127 123 124 147 151 223 267 240 219 199 175 161 154 142 137 147 151 150 141 145 159 160 154 147
118 108 110 112 146 179 131 94 73 65 56 76 68 52 63 64 94 82 80 69 79 87 100 101 101 108 114 122 140 143 131 162 194 203 296 307 243 201 186 173 161 155 155 150 141 144 138 144 142 151 157 150 145 138
Wind_Speed_850mb
29 30 29 29 30 30 30 31 33 35 35 34 31 30 25 24 21 19 8 19 12 24 30 15 17 19 15 18 18 16 14 20 19 17 18 17 13 15 15 21 12 17 12 13 14 24 25 22 19 8 8 27 31 36
30 32 32 32 31 31 31 31 31 33 36 34 34 31 27 24 24 22 15 19 23 22 27 18 25 27 25 18 17 15 11 4 14 10 12 9 10 10 13 20 15 13 19 10 10 4 7 13 12 12 23 32 35 36
27 29 31 34 35 35 33 33 32 31 32 36 34 34 29 29 27 28 21 16 15 25 40 45 44 30 33 30 19 15 25 17 9 9 20 9 12 11 15 17 24 21 19 12 12 11 16 24 24 23 24 26 28 31
29 29 29 29 33 37 37 35 35 32 31 33 37 34 31 30 30 30 24 22 22 19 16 20 19 22 23 28 34 30 15 7 13 13 24 14 17 13 18 18 15 10 15 16 25 31 28 26 19 16 18 22 26 30
31 32 34 33 36 33 36 38 37 34 31 32 33 34 32 34 38 37 34 30 30 22 13 17 9 27 20 19 27 35 29 23 24 25 19 18 32 18 24 18 21 33 25 19 16 14 7 10 9 13 18 23 26 31
30 33 34 33 32 33 31 34 37 36 34 32 32 33 34 34 28 32 33 46 43 29 14 10 10 19 20 21 23 31 36 31 35 33 29 35 9 8 13 21 34 29 26 28 27 14 12 11 13 18 18 21 26 30
32 32 33 32 32 30 28 29 31 36 35 33 33 36 33 35 26 31 12 13 35 39 10 12 18 30 24 22 25 26 30 33 32 36 35 37 23 20 20 27 31 17 23 25 24 16 15 17 15 11 18 20 24 30
36 35 34 32 30 30 28 29 29 35 34 33 32 33 39 31 38 40 54 15 34 34 15 9 10 14 27 23 25 28 26 33 31 35 29 27 23 20 14 26 39 38 27 30 28 24 19 12 12 15 16 22 28 32
35 38 35 32 29 28 25 27 27 33 30 29 26 22 27 35 20 32 41 47 39 23 12 13 21 16 28 30 27 19 22 16 23 25 40 23 23 21 19 31 33 34 36 34 29 25 22 19 17 13 18 24 28 32
33 33 34 32 31 31 30 26 24 28 23 20 12 10 12 21 28 18 19 15 29 21 16 12 33 13 24 32 26 16 17 16 10 21 31 28 29 52 51 37 29 31 37 31 31 28 22 19 15 12 18 21 26 31
36 33 33 32 31 32 30 25 18 19 20 13 14 15 9 10 20 15 10 10 13 9 18 21 38 13 23 20 15 22 6 7 9 15 14 10 17 45 59 60 38 36 38 33 28 23 18 12 9 10 15 20 26 29
38 34 34 33 33 34 31 26 15 25 20 20 14 13 18 12 8 7 8 8 12 13 26 30 60 58 25 21 13 14 6 7 12 16 9 12 18 34 40 55 53 41 35 32 29 22 16 13 9 7 14 20 25 25
39 35 33 32 34 34 33 27 24 34 28 22 14 14 10 10 9 10 16 10 11 18 19 36 34 30 15 17 9 8 12 13 7 10 10 9 20 29 28 38 56 47 34 30 27 22 18 14 9 11 16 20 25 25
35 35 34 32 35 33 36 26 28 28 27 11 14 11 10 11 13 14 20 4 21 14 34 50 40 15 18 15 9 9 13 8 13 16 17 11 26 27 31 36 47 42 39 34 28 22 17 14 11 12 16 19 25 25
31 31 35 33 36 33 34 28 31 24 16 15 12 12 17 27 23 12 19 11 20 24 37 36 21 13 8 9 9 13 11 15 14 17 11 33 39 44 43 43 43 41 36 31 25 20 16 13 12 15 17 21 25 22
28 29 41 35 37 34 33 32 27 26 15 10 13 9 21 18 32 25 21 25 18 18 45 28 9 10 9 9 18 23 16 14 13 9 25 34 49 50 46 43 40 36 32 27 22 17 13 11 12 16 21 23 22 21
29 24 30 35 36 38 38 31 28 22 13 12 15 29 32 21 22 30 33 22 22 15 5 8 16 16 12 12 22 20 28 11 14 29 25 33 49 51 48 43 38 34 29 23 18 15 11 10 13 19 25 20 20 21
30 29 29 37 40 36 30 25 17 17 18 22 18 35 28 29 16 14 14 12 20 25 18 4 8 24 14 20 20 24 30 26 22 28 32 43 50 48 45 41 35 30 26 21 17 14 13 15 18 19 16 17 20 19
28 28 33 45 48 28 19 22 17 10 28 24 32 35 28 29 29 28 20 16 25 25 8 9 9 11 18 12 20 37 34 35 35 34 37 44 49 47 43 37 31 26 22 18 16 15 13 10 16 16 15 17 21 25
28 32 36 49 46 17 10 12 26 13 12 22 31 32 29 36 36 33 29 26 17 13 8 6 8 12 14 16 6 26 38 37 40 45 47 46 46 43 39 34 27 23 19 15 14 15 12 9 11 11 11 20 16 20
30 30 35 38 42 29 9 8 15 21 25 18 20 28 28 36 36 28 24 18 18 10 12 24 28 20 18 7 15 26 34 43 48 50 53 51 45 39 34 28 25 20 16 14 11 12 10 10 9 11 13 12 12 13
25 37 30 41 16 14 13 16 15 10 14 9 10 24 23 33 25 23 18 14 12 17 25 31 24 4 10 13 13 28 31 37 39 43 44 46 44 37 33 27 21 18 14 10 9 9 8 8 6 11 13 7 10 9
28 32 20 15 12 15 14 13 15 15 9 7 5 12 8 15 15 21 11 13 12 21 26 32 26 29 16 22 30 35 35 37 42 44 43 40 34 29 25 21 18 15 11 9 9 8 6 7 14 10 10 9 10 10
23 15 11 16 19 13 11 11 13 12 9 10 7 7 7 11 18 13 5 1 6 17 9 37 44 13 22 23 33 34 33 33 36 38 36 34 31 25 21 18 15 12 11 10 9 9 9 10 11 13 7 7 10 11
10 11 9 13 14 10 9 9 12 13 12 8 4 4 7 17 11 11 10 14 16 9 2 44 38 8 29 35 36 37 29 32 34 33 30 28 25 24 20 16 12 10 10 11 11 11 12 11 10 5 2 5 7 11
10 16 14 13 17 11 9 9 10 13 7 7 6 6 8 6 8 8 7 23 19 19 14 29 32 8 29 27 25 31 33 30 29 27 25 26 24 21 17 17 13 16 13 13 12 13 14 10 8 8 7 5 4 10
8 14 18 19 15 16 10 17 16 8 3 3 8 6 1 2 5 8 11 13 15 16 25 19 21 18 19 23 29 27 32 22 22 20 22 22 19 15 11 11 10 7 8 6 11 13 14 13 14 16 9 3 12 16
13 9 15 24 17 13 6 7 7 6 5 1 5 13 10 3 7 10 7 5 7 12 15 24 22 21 24 24 31 29 25 24 21 19 18 18 15 13 10 8 7 6 5 6 7 8 10 10 12 19 13 11 17 12
9 8 11 12 10 7 11 13 9 9 11 8 4 7 7 9 13 16 8 8 13 16 18 22 25 19 28 32 28 26 26 25 24 22 20 18 16 13 11 4 4 5 7 10 23 17 12 13 19 16 15 21 17 12
8 7 4 11 7 6 8 9 8 11 14 15 9 11 13 15 13 15 16 15 16 18 19 23 25 27 26 26 26 24 21 17 17 17 17 12 12 15 15 11 11 13 14 14 11 12 8 14 24 22 20 23 16 14
5 6 8 7 6 6 8 10 13 15 10 19 21 22 13 9 11 15 17 16 17 20 20 27 24 19 21 24 24 23 19 13 7 3 5 6 6 7 9 14 18 20 18 16 13 18 23 23 15 17 25 19 17 14
9 11 3 6 5 6 7 3 8 9 8 9 10 10 6 6 7 6 8 11 14 21 22 19 17 19 17 17 16 19 19 16 12 6 3 5 4 7 15 18 24 25 24 19 17 19 18 20 20 21 22 18 14 17
7 9 13 10 7 7 7 8 6 6 9 7 7 7 5 4 4 7 4 6 12 14 13 15 14 13 15 14 12 13 13 7 8 5 8 15 9 17 15 24 30 32 28 23 24 26 22 22 21 15 15 17 20 22
Wind_Direction_850mb
266 267 268 266 265 266 267 265 261 261 259 262 264 263 260 248 248 245 246 262 244 268 266 283 256 265 250 245 250 139 179 211 204 240 261 260 248 263 240 266 273 219 216 253 249 264 274 123 138 203 275 312 304 310
271 269 266 263 263 263 263 266 266 261 251 256 254 253 257 247 239 237 248 268 260 245 263 288 256 245 246 270 284 187 257 320 229 235 228 287 261 251 265 270 166 254 243 273 192 262 109 205 244 276 286 300 307 309
274 281 278 266 262 260 261 260 262 262 257 249 250 249 248 252 244 233 233 259 277 267 276 255 250 261 241 236 234 258 219 242 232 278 305 290 267 281 259 246 257 198 240 241 268 266 276 239 257 275 285 294 306 304
267 268 274 283 277 264 257 256 257 258 257 251 243 248 247 245 243 239 235 238 240 267 280 250 207 239 241 228 224 224 261 248 222 244 250 257 260 240 259 290 273 292 162 235 255 265 261 255 263 284 287 299 302 307
268 271 272 271 274 284 266 254 253 253 254 252 243 243 244 242 236 240 241 231 221 234 301 285 241 239 234 215 218 220 224 227 236 228 234 245 256 263 252 271 266 249 236 245 258 309 262 256 269 277 288 298 308 315
270 274 273 268 268 268 275 263 252 249 249 250 244 239 247 251 236 226 244 246 227 212 263 257 256 214 216 212 214 213 217 225 234 244 247 250 214 237 261 241 254 251 246 231 247 253 235 257 269 284 287 303 312 315
272 275 271 264 263 261 267 264 265 250 246 246 245 239 245 245 240 212 211 177 193 197 212 238 242 211 210 200 204 207 210 221 230 236 241 251 228 192 254 257 252 247 238 226 222 212 231 244 255 286 293 304 311 312
270 273 267 260 259 256 254 259 268 263 244 242 245 243 237 247 250 242 225 230 184 180 203 248 231 172 192 198 195 203 210 218 225 239 231 238 211 222 253 248 246 244 235 219 213 212 233 253 262 275 289 305 311 318
267 268 257 251 253 245 245 258 264 272 248 237 244 252 252 248 231 236 233 242 230 199 202 237 225 203 175 212 204 185 218 218 232 222 237 231 229 224 235 250 243 224 218 209 207 210 226 238 258 281 298 313 318 320
268 262 250 244 242 236 234 246 254 275 246 217 219 213 236 230 230 264 229 209 209 211 216 251 228 196 189 190 185 192 191 232 212 227 238 231 242 244 237 252 247 213 204 201 201 201 223 236 255 273 306 316 323 323
259 259 244 239 236 229 230 240 245 276 191 194 203 219 234 205 191 188 170 179 187 228 211 209 237 194 205 193 201 202 216 242 243 218 203 227 245 235 231 227 223 208 203 204 203 214 219 232 253 280 303 314 321 325
252 251 239 235 228 221 223 220 222 191 183 202 206 215 168 188 203 172 192 185 211 217 183 200 206 220 181 183 183 202 225 248 241 133 217 237 249 223 220 214 209 201 197 196 201 203 202 211 228 268 307 319 324 322
247 239 231 230 219 217 215 213 210 197 224 213 220 203 198 177 200 219 194 198 210 195 167 175 186 183 145 185 163 209 217 233 122 218 230 238 249 209 204 197 193 191 194 189 190 191 198 212 231 268 305 315 323 322
237 229 221 223 214 211 206 208 202 212 224 219 209 205 212 180 229 199 232 183 200 204 185 181 157 152 163 162 151 202 235 210 228 207 228 212 209 182 173 169 173 179 178 180 183 189 204 220 242 281 300 315 322 318
229 224 215 211 204 210 195 198 195 196 215 223 212 223 214 230 238 238 231 234 219 209 197 160 133 124 120 142 215 228 207 227 217 221 215 219 182 174 170 164 163 165 170 175 181 193 208 233 254 288 305 310 317 314
222 221 214 207 201 196 190 193 193 197 231 243 226 257 241 259 237 219 246 238 234 263 180 154 141 163 181 196 198 208 214 216 206 166 221 153 162 168 168 165 164 167 171 175 185 196 215 241 268 292 307 312 310 315
209 206 217 204 194 188 193 188 188 194 226 225 230 235 252 283 264 254 227 219 204 261 181 154 189 183 169 213 214 214 218 214 163 194 163 169 166 164 163 163 165 167 172 178 188 202 228 256 280 297 304 308 309 312
198 201 199 185 184 175 188 215 190 207 225 230 240 236 238 235 250 248 240 217 200 197 239 264 292 205 198 217 204 222 205 147 163 155 155 160 161 162 163 163 165 168 175 187 200 219 245 270 282 294 310 308 312 309
200 197 189 183 175 179 197 205 216 240 222 221 237 259 266 248 232 244 237 221 215 209 260 271 245 237 222 257 243 189 154 153 160 149 154 159 160 161 161 162 163 170 181 195 210 234 262 281 281 290 299 311 318 323
189 192 188 182 182 207 226 207 198 238 235 216 226 233 237 245 242 220 229 221 203 196 198 248 234 305 331 269 283 170 176 170 163 151 153 157 160 158 160 161 169 174 184 203 225 234 257 264 268 268 284 315 330 324
163 177 175 187 202 228 250 214 215 232 232 234 238 239 234 233 233 217 209 193 193 196 221 224 251 299 271 275 191 182 178 184 177 168 159 159 163 163 164 168 172 181 197 217 232 199 270 257 271 290 303 306 321 328
170 174 174 194 202 213 253 236 241 224 205 230 256 223 245 228 214 205 183 183 217 210 209 224 216 228 242 203 181 165 177 177 169 160 159 158 163 167 174 176 182 197 205 217 231 244 261 271 260 293 295 294 318 310
168 182 182 179 198 214 264 247 231 213 231 197 246 207 219 225 198 169 214 214 227 226 208 211 205 170 195 184 169 164 175 162 157 158 158 166 167 170 173 184 193 205 214 224 225 231 255 251 293 285 266 284 301 317
181 189 184 182 214 208 211 223 210 190 228 206 209 187 189 199 176 204 203 266 259 214 223 198 178 213 179 170 154 156 164 165 156 160 166 165 167 170 178 186 197 206 216 220 216 226 252 276 271 280 229 292 310 313
183 206 205 232 226 218 217 203 191 192 227 188 227 182 189 180 199 190 159 183 193 161 147 179 181 179 171 161 160 165 170 167 168 168 169 170 173 171 175 182 185 188 188 195 218 240 259 268 276 211 138 305 320 308
230 205 197 221 200 212 221 253 222 207 186 203 150 251 203 195 147 151 125 165 176 168 144 152 179 162 178 182 181 177 177 182 170 171 175 173 171 172 179 185 194 201 213 227 249 258 263 254 210 170 199 314 24 85
256 217 209 226 248 179 227 251 251 149 267 227 134 195 130 53 117 86 112 108 131 148 172 137 158 168 176 194 194 192 190 161 164 169 168 171 169 171 174 180 186 149 167 245 266 249 238 214 209 178 186 229 123 121
252 236 201 194 211 215 254 205 184 192 171 155 241 194 169 53 67 71 85 149 172 151 154 171 183 185 221 176 166 156 155 163 161 140 147 154 157 163 165 173 180 235 191 171 187 189 189 182 178 186 185 185 160 125
245 214 179 184 147 77 26 13 41 35 3 334 1 52 61 60 84 76 88 126 148 151 149 152 165 150 150 169 167 161 158 156 157 159 163 160 165 166 169 198 144 141 168 177 175 172 170 171 199 199 195 177 158 138
90 18 111 53 35 61 34 23 52 39 50 57 74 93 87 82 66 72 63 88 116 128 134 142 148 154 158 154 146 149 156 160 163 173 186 174 159 170 171 187 192 167 159 156 156 183 202 154 150 143 149 152 147 157
32 79 79 66 74 56 93 90 81 68 64 35 80 96 100 112 102 75 72 72 96 115 114 109 119 135 141 153 155 162 156 157 161 97 95 134 205 212 183 198 175 169 157 151 139 131 140 147 145 158 155 153 161 163
29 26 94 106 115 128 153 127 90 81 69 62 48 57 69 81 59 78 61 50 99 96 97 110 106 95 104 107 113 115 127 123 124 147 151 223 267 240 219 199 175 161 154 142 137 147 151 150 141 145 159 160 154 147
118 108 110 112 146 179 131 94 73 65 56 76 68 52 63 64 94 82 80 69 79 87 100 101 101 108 114 122 140 143 131 162 194 203 296 307 243 201 186 173 161 155 155 150 141 144 138 144 142 151 157 150 145 138